Location: Libas
(9.8833°N, 125.9833°E)
Time: 19:53:17
(UTC+00:00)

Envisat - Visible Passes

Search period start: 22 January 2021 00:00
Search period end: 01 February 2021 00:00
Orbit: 764 x 766 km, 98.1° (Epoch: 22 January)

Date Brightness Start Highest point End Pass type
(mag) Time Alt. Az. Time Alt. Az. Time Alt. Az.
22 Jan 6.0 20:02:15 10° ENE 20:04:54 14° E 20:07:31 10° SE visible
23 Jan 3.1 21:01:57 10° NNE 21:07:01 84° E 21:12:06 10° S visible
24 Jan 5.0 20:25:54 10° NE 20:30:16 29° E 20:34:38 10° SSE visible
25 Jan 3.2 21:27:31 10° N 21:32:20 46° WNW 21:37:11 10° SSW visible
26 Jan 6.6 10:07:07 10° WSW 10:08:50 12° W 10:10:34 10° W visible
26 Jan 3.5 20:50:38 10° NNE 20:55:38 61° ESE 21:00:39 10° S visible
27 Jan 5.5 20:15:03 10° NE 20:18:53 22° E 20:22:42 10° SSE visible
28 Jan 3.0 21:15:58 10° N 21:20:58 64° WNW 21:26:00 10° SSW visible
29 Jan 4.2 20:39:25 10° NNE 20:44:15 44° ESE 20:49:04 10° S visible
30 Jan 5.9 20:04:26 10° ENE 20:07:28 16° E 20:10:29 10° SE visible
31 Jan 3.0 21:04:31 10° N 21:09:35 87° WNW 21:14:40 10° SSW visible
